| time (UTC) | temp F | wind direction | speed MPH | gust MPH | rain 1hr in | rain 24hr in | rain mn in | humidity % | barometer mb |
| 20260506223048 | 53 | 325 | 3.0 | 7.0 | 0.00 | 2.23 | 0.00 | 80 | 1009.4 |
| 20260506221540 | 53 | 338 | 0.0 | 3.0 | 0.00 | 2.23 | 0.00 | 81 | 1009.6 |
| 20260506220038 | 53 | 288 | 1.0 | 3.0 | 0.00 | 2.23 | 0.00 | 81 | 1009.4 |
| 20260506214540 | 53 | 21 | 2.0 | 4.0 | 0.00 | 2.23 | 2.23 | 81 | 1009.3 |
| 20260506213036 | 53 | 333 | 4.0 | 7.0 | 0.00 | 2.23 | 2.23 | 82 | 1009.1 |
| 20260506211536 | 53 | 312 | 2.0 | 6.0 | 0.00 | 2.23 | 2.23 | 83 | 1009.1 |
| 20260506210037 | 53 | 360 | 3.0 | 6.0 | 0.00 | 2.23 | 2.23 | 85 | 1009.1 |
| 20260506204547 | 53 | 312 | 3.0 | 6.0 | 0.00 | 2.23 | 2.23 | 86 | 1008.8 |
| 20260506203033 | 53 | 355 | 1.0 | 4.0 | 0.00 | 2.23 | 2.23 | 86 | 1008.6 |
| 20260506201535 | 54 | 355 | 0.0 | 3.0 | 0.00 | 2.23 | 2.23 | 85 | 1008.5 |
| 20260506200034 | 54 | 355 | 1.0 | 4.0 | 0.00 | 2.23 | 2.23 | 86 | 1008.2 |
| 20260506194534 | 55 | 239 | 0.0 | 3.0 | 0.00 | 2.23 | 2.23 | 83 | 1008.0 |
| 20260506193031 | 56 | 306 | 0.0 | 2.0 | 0.00 | 2.23 | 2.23 | 81 | 1007.7 |
| 20260506191529 | 57 | 23 | 0.0 | 2.0 | 0.00 | 2.23 | 2.23 | 79 | 1007.5 |
| 20260506190028 | 57 | 39 | 2.0 | 4.0 | 0.00 | 2.23 | 2.23 | 78 | 1007.0 |
| 20260506184527 | 58 | 339 | 2.0 | 5.0 | 0.00 | 2.23 | 2.23 | 77 | 1006.8 |
| 20260506183027 | 58 | 5 | 1.0 | 7.0 | 0.00 | 2.23 | 2.23 | 74 | 1006.6 |
| 20260506181529 | 58 | 360 | 4.0 | 7.0 | 0.00 | 2.23 | 2.23 | 75 | 1006.2 |
| 20260506180126 | 60 | 175 | 2.0 | 6.0 | 0.00 | 2.23 | 2.23 | 72 | 1006.0 |
| 20260506174524 | 60 | 60 | 3.0 | 5.0 | 0.00 | 2.29 | 2.23 | 69 | 1005.6 |
| 20260506173024 | 61 | 257 | 2.0 | 4.0 | 0.00 | 2.29 | 2.23 | 66 | 1005.5 |
| 20260506171535 | 62 | 84 | 0.0 | 4.0 | 0.00 | 2.29 | 2.23 | 63 | 1005.4 |
| 20260506170023 | 64 | 171 | 0.0 | 4.0 | 0.00 | 2.29 | 2.23 | 62 | 1005.3 |
| 20260506164523 | 63 | 324 | 2.0 | 11.0 | 0.00 | 2.37 | 2.23 | 58 | 1004.9 |
| 20260506163022 | 63 | 288 | 7.0 | 14.0 | 0.00 | 2.37 | 2.23 | 61 | 1004.7 |
| 20260506161523 | 62 | 297 | 8.0 | 17.0 | 0.01 | 2.37 | 2.23 | 65 | 1004.5 |
| 20260506160033 | 60 | 301 | 5.0 | 15.0 | 0.01 | 2.37 | 2.23 | 68 | 1004.5 |
| 20260506154518 | 60 | 310 | 6.0 | 12.0 | 0.01 | 2.37 | 2.23 | 69 | 1004.9 |
| 20260506153017 | 61 | 304 | 5.0 | 10.0 | 0.01 | 2.37 | 2.23 | 70 | 1005.4 |
| 20260506151529 | 62 | 250 | 5.0 | 13.0 | 0.00 | 2.36 | 2.22 | 71 | 1005.4 |
| 20260506150026 | 62 | 344 | 7.0 | 14.0 | 0.00 | 2.36 | 2.22 | 72 | 1005.6 |
| 20260506144514 | 63 | 271 | 2.0 | 6.0 | 0.00 | 2.36 | 2.22 | 70 | 1005.6 |
| 20260506143034 | 64 | 71 | 2.0 | 4.0 | 0.00 | 2.36 | 2.22 | 70 | 1005.2 |
| 20260506141513 | 64 | 78 | 0.0 | 6.0 | 0.00 | 2.36 | 2.22 | 65 | 1005.1 |
| 20260506140014 | 65 | 273 | 1.0 | 4.0 | 0.00 | 2.36 | 2.22 | 61 | 1005.0 |
| 20260506134512 | 66 | 250 | 2.0 | 7.0 | 0.00 | 2.36 | 2.22 | 58 | 1005.0 |
| 20260506133009 | 65 | 269 | 6.0 | 11.0 | 0.00 | 2.36 | 2.22 | 60 | 1005.0 |
| 20260506131508 | 64 | 305 | 8.0 | 12.0 | 0.00 | 2.36 | 2.22 | 60 | 1005.2 |
| 20260506130002 | 63 | 310 | 7.0 | 14.0 | 0.00 | 2.36 | 2.22 | 65 | 1005.4 |
| 20260506124557 | 62 | 319 | 6.0 | 13.0 | 0.00 | 2.36 | 2.22 | 69 | 1005.6 |
| 20260506123055 | 60 | 315 | 6.0 | 15.0 | 0.00 | 2.36 | 2.22 | 67 | 1005.8 |
| 20260506121552 | 59 | 328 | 6.0 | 13.0 | 0.00 | 2.36 | 2.22 | 69 | 1005.9 |
| 20260506120048 | 59 | 321 | 6.0 | 12.0 | 0.00 | 2.36 | 2.22 | 71 | 1005.9 |
| 20260506114548 | 59 | 11 | 11.0 | 18.0 | 0.00 | 2.36 | 2.22 | 72 | 1005.9 |
| 20260506113043 | 58 | 346 | 7.0 | 12.0 | 0.00 | 2.36 | 2.22 | 84 | 1005.9 |
| 20260506111541 | 57 | 320 | 5.0 | 8.0 | 0.00 | 2.36 | 2.22 | 83 | 1006.0 |
| 20260506110041 | 56 | 324 | 5.0 | 11.0 | 0.00 | 2.36 | 2.22 | 86 | 1006.0 |
| 20260506104533 | 54 | 336 | 5.0 | 11.0 | 0.00 | 2.36 | 2.22 | 95 | 1006.1 |
| 20260506103031 | 51 | 342 | 4.0 | 9.0 | 0.02 | 2.36 | 2.22 | 96 | 1006.3 |
| 20260506101546 | 49 | 360 | 3.0 | 11.0 | 0.08 | 2.36 | 2.22 | 96 | 1006.3 |
| 20260506100030 | 48 | 321 | 6.0 | 11.0 | 0.24 | 2.36 | 2.22 | 97 | 1006.4 |
| 20260506094529 | 48 | 5 | 7.0 | 11.0 | 0.43 | 2.37 | 2.22 | 97 | 1006.4 |
| 20260506093028 | 48 | 311 | 7.0 | 14.0 | 0.57 | 2.35 | 2.20 | 96 | 1006.4 |
| 20260506091525 | 49 | 299 | 6.0 | 11.0 | 0.66 | 2.29 | 2.14 | 97 | 1006.3 |
| 20260506090020 | 50 | 281 | 5.0 | 10.0 | 0.69 | 2.13 | 1.98 | 97 | 1006.3 |
| 20260506084519 | 51 | 281 | 4.0 | 6.0 | 0.63 | 1.94 | 1.79 | 97 | 1006.0 |
| 20260506083013 | 51 | 317 | 3.0 | 6.0 | 0.69 | 1.77 | 1.62 | 97 | 1006.2 |
| 20260506081510 | 53 | 331 | 3.0 | 6.0 | 0.73 | 1.62 | 1.47 | 97 | 1006.6 |
| 20260506073006 | 53 | 355 | 1.0 | 4.0 | 0.57 | 1.07 | 0.91 | 97 | 1006.3 |
| 20260506071512 | 53 | 289 | 2.0 | 5.0 | 0.41 | 0.90 | 0.74 | 97 | 1006.2 |
| 20260506061600 | 53 | 199 | 0.0 | 1.0 | 0.10 | 0.51 | 0.33 | 97 | 1006.0 |
| 20260506044537 | 53 | 0.0 | 0.0 | 0.11 | 0.49 | 0.13 | 97 | 1006.8 | |
| 20260506043033 | 53 | 0.0 | 0.0 | 0.06 | 0.43 | 0.07 | 97 | 1006.7 | |
| 20260506041532 | 53 | 0.0 | 0.0 | 0.02 | 0.40 | 0.04 | 97 | 1006.9 | |
| 20260506040026 | 53 | 0.0 | 0.0 | 0.01 | 0.39 | 0.02 | 97 | 1006.9 | |
| 20260506034520 | 53 | 0.0 | 0.0 | 0.00 | 0.40 | 0.02 | 97 | 1007.1 | |
| 20260506033015 | 53 | 0.0 | 0.0 | 0.00 | 0.40 | 0.02 | 97 | 1007.3 | |
| 20260506031516 | 53 | 0.0 | 0.0 | 0.00 | 0.40 | 0.02 | 97 | 1007.5 | |
| 20260506030009 | 53 | 0.0 | 0.0 | 0.00 | 0.40 | 0.02 | 97 | 1007.6 | |
| 20260506024502 | 53 | 0.0 | 0.0 | 0.01 | 0.41 | 0.02 | 97 | 1007.9 | |
| 20260506023101 | 53 | 0.0 | 0.0 | 0.01 | 0.41 | 0.02 | 97 | 1008.0 | |
| 20260506021557 | 53 | 0.0 | 0.0 | 0.01 | 0.41 | 0.02 | 97 | 1008.1 | |
| 20260506020049 | 53 | 0.0 | 0.0 | 0.02 | 0.41 | 0.02 | 97 | 1008.2 | |
| 20260506014552 | 53 | 0.0 | 0.0 | 0.01 | 0.41 | 0.01 | 96 | 1008.3 | |
| 20260506013041 | 54 | 0.0 | 0.0 | 0.01 | 0.41 | 0.01 | 96 | 1008.4 | |
| 20260506011540 | 54 | 0.0 | 0.0 | 0.01 | 0.41 | 0.01 | 96 | 1008.7 | |
| 20260506010032 | 54 | 0.0 | 0.0 | 0.00 | 0.40 | 0.00 | 96 | 1009.1 | |
| 20260506004537 | 54 | 0.0 | 0.0 | 0.00 | 0.40 | 0.00 | 96 | 1009.2 | |
| 20260506003023 | 54 | 0.0 | 0.0 | 0.00 | 0.40 | 0.00 | 96 | 1009.2 | |
| 20260506001518 | 54 | 0.0 | 0.0 | 0.00 | 0.40 | 0.00 | 96 | 1009.3 | |
| 20260506000018 | 54 | 0.0 | 0.0 | 0.00 | 0.40 | 0.00 | 96 | 1009.6 | |
| 20260505234515 | 54 | 0.0 | 0.0 | 0.00 | 0.40 | 0.00 | 96 | 1009.7 | |
| 20260505233005 | 54 | 0.0 | 0.0 | 0.00 | 0.40 | 0.00 | 96 | 1009.9 | |
| 20260505231602 | 54 | 0.0 | 0.0 | 0.00 | 0.40 | 0.00 | 96 | 1010.2 | |
| 20260505230116 | 54 | 0.0 | 0.0 | 0.00 | 0.40 | 0.00 | 96 | 1009.7 | |
| 20260505224552 | 54 | 0.0 | 0.0 | 0.00 | 0.40 | 0.00 | 96 | 1010.1 |